�������l�o���
Date,Time,MP-1(��Sv/h),MP-2(��Sv/h),MP-3(��Sv/h),MP-4(��Sv/h),MP-5(��Sv/h),MP-6(��Sv/h),MP-7(��Sv/h),MP-8(��Sv/h),����,����(m/s),���J
2021/05/18,00:00,0.644,0.935,0.596,1.171,0.815,0.379,0.655,0.611,�k�k��,5.2,�L
2021/05/18,00:10,0.645,0.934,0.595,1.170,0.815,0.378,0.657,0.611,�k�k��,5.3,�L
2021/05/18,00:20,0.644,0.934,0.594,1.167,0.813,0.378,0.657,0.610,�k��,5.3,�L
2021/05/18,00:30,0.644,0.932,0.595,1.168,0.814,0.377,0.654,0.608,�k�k��,5.8,�L
2021/05/18,00:40,0.643,0.930,0.598,1.166,0.814,0.377,0.655,0.608,�k�k��,5.1,�L
2021/05/18,00:50,0.643,0.933,0.595,1.165,0.813,0.378,0.654,0.610,�k�k��,4.3,�L
2021/05/18,01:00,0.644,0.929,0.595,1.164,0.814,0.378,0.654,0.609,�k�k��,5.0,�L
2021/05/18,01:10,0.644,0.930,0.595,1.160,0.810,0.379,0.655,0.607,�k�k��,5.3,�L
2021/05/18,01:20,0.641,0.927,0.594,1.158,0.809,0.378,0.652,0.609,�k,3.9,�L
2021/05/18,01:30,0.642,0.926,0.596,1.153,0.809,0.376,0.654,0.608,�k,3.1,�L
2021/05/18,01:40,0.642,0.928,0.596,1.154,0.808,0.377,0.652,0.608,�k,2.6,�L
2021/05/18,01:50,0.641,0.925,0.593,1.155,0.807,0.377,0.653,0.608,�k,3.2,�L
2021/05/18,02:00,0.640,0.926,0.592,1.155,0.806,0.374,0.651,0.608,�k,2.3,�L
2021/05/18,02:10,0.639,0.925,0.591,1.153,0.805,0.374,0.653,0.607,�k,3.3,�L
2021/05/18,02:20,0.638,0.927,0.590,1.151,0.807,0.374,0.652,0.607,�k,3.4,�L
2021/05/18,02:30,0.636,0.924,0.593,1.149,0.807,0.376,0.652,0.607,�k,3.3,�L
2021/05/18,02:40,0.638,0.927,0.590,1.150,0.804,0.375,0.651,0.606,�k,4.1,�L
2021/05/18,02:50,0.637,0.926,0.592,1.148,0.806,0.374,0.652,0.608,�k,4.5,�L
2021/05/18,03:00,0.636,0.924,0.590,1.146,0.804,0.372,0.652,0.607,�k,4.7,�L
2021/05/18,03:10,0.636,0.921,0.590,1.147,0.806,0.375,0.650,0.606,�k,4.5,�L
2021/05/18,03:20,0.635,0.921,0.592,1.145,0.804,0.377,0.650,0.606,�k,4.4,�L
2021/05/18,03:30,0.637,0.919,0.592,1.144,0.804,0.375,0.649,0.608,�k�k��,5.0,�L
2021/05/18,03:40,0.638,0.918,0.591,1.142,0.802,0.376,0.650,0.606,�k,4.6,�L
2021/05/18,03:50,0.636,0.918,0.589,1.140,0.801,0.376,0.650,0.606,�k�k��,4.5,�L
2021/05/18,04:00,0.636,0.915,0.589,1.139,0.801,0.376,0.649,0.604,�k,6.0,�L
2021/05/18,04:10,0.636,0.916,0.591,1.140,0.800,0.377,0.650,0.606,�k,6.2,�L
2021/05/18,04:20,0.633,0.915,0.589,1.139,0.799,0.377,0.650,0.604,�k,6.9,�L
2021/05/18,04:30,0.635,0.917,0.589,1.136,0.799,0.375,0.649,0.606,�k,6.8,�L
2021/05/18,04:40,0.634,0.916,0.588,1.136,0.800,0.374,0.649,0.605,�k,7.1,�L
2021/05/18,04:50,0.634,0.914,0.585,1.136,0.798,0.373,0.650,0.603,�k,6.1,�L
2021/05/18,05:00,0.631,0.914,0.585,1.135,0.797,0.372,0.647,0.604,�k�k��,6.0,��
2021/05/18,05:10,0.633,0.914,0.586,1.134,0.796,0.372,0.647,0.603,�k,6.6,�L
2021/05/18,05:20,0.632,0.910,0.585,1.133,0.796,0.374,0.646,0.604,�k,6.2,�L
2021/05/18,05:30,0.632,0.913,0.585,1.132,0.795,0.372,0.648,0.604,�k,5.5,�L
2021/05/18,05:40,0.630,0.912,0.585,1.132,0.797,0.369,0.646,0.604,�k,4.8,�L
2021/05/18,05:50,0.630,0.914,0.582,1.133,0.794,0.370,0.646,0.603,�k�k��,4.5,��
2021/05/18,06:00,0.628,0.913,0.582,1.130,0.796,0.369,0.648,0.604,�k,4.7,��
2021/05/18,06:10,0.630,0.915,0.582,1.133,0.795,0.371,0.647,0.603,�k,5.3,��
2021/05/18,06:20,0.628,0.914,0.581,1.130,0.795,0.370,0.646,0.604,�k,5.8,��
2021/05/18,06:30,0.628,0.912,0.582,1.130,0.794,0.369,0.647,0.603,�k,6.3,��
2021/05/18,06:40,0.627,0.914,0.583,1.133,0.794,0.368,0.647,0.603,�k,7.0,��
2021/05/18,06:50,0.628,0.912,0.582,1.134,0.795,0.366,0.647,0.603,�k,7.0,��
2021/05/18,07:00,0.628,0.912,0.583,1.132,0.793,0.367,0.648,0.603,�k,6.7,��
2021/05/18,07:10,0.629,0.909,0.582,1.132,0.793,0.367,0.646,0.604,�k,6.2,��
2021/05/18,07:20,0.627,0.912,0.580,1.132,0.794,0.367,0.645,0.604,�k,5.5,��
2021/05/18,07:30,0.628,0.912,0.581,1.132,0.793,0.367,0.647,0.603,�k,6.6,��
2021/05/18,07:40,0.629,0.910,0.581,1.134,0.796,0.366,0.645,0.604,�k,6.0,��
2021/05/18,07:50,0.627,0.913,0.581,1.131,0.797,0.368,0.647,0.603,�k�k��,6.7,��
2021/05/18,08:00,0.630,0.912,0.581,1.133,0.797,0.365,0.647,0.602,�k�k��,6.9,��
2021/05/18,08:10,0.629,0.915,0.581,1.134,0.795,0.368,0.648,0.603,�k�k��,6.9,��
2021/05/18,08:20,0.629,0.915,0.580,1.134,0.794,0.368,0.647,0.603,�k�k��,6.8,��
2021/05/18,08:30,0.630,0.914,0.581,1.136,0.796,0.367,0.648,0.602,�k,5.4,��
2021/05/18,08:40,0.631,0.914,0.580,1.134,0.798,0.368,0.648,0.604,�k�k��,5.9,��
2021/05/18,08:50,0.630,0.914,0.581,1.135,0.797,0.368,0.649,0.606,�k�k��,7.3,��
2021/05/18,09:00,0.631,0.916,0.580,1.134,0.799,0.367,0.648,0.605,�k,7.3,��
2021/05/18,09:10,0.630,0.915,0.583,1.135,0.798,0.366,0.649,0.603,�k�k��,6.5,��
2021/05/18,09:20,0.630,0.916,0.584,1.134,0.799,0.367,0.648,0.604,�k�k��,6.2,��
2021/05/18,09:30,0.630,0.915,0.583,1.137,0.799,0.368,0.648,0.605,�k�k��,7.9,��
2021/05/18,09:40,0.631,0.918,0.583,1.137,0.798,0.369,0.649,0.604,�k�k��,7.3,��
2021/05/18,09:50,0.631,0.916,0.584,1.135,0.800,0.368,0.649,0.604,�k,7.9,��
2021/05/18,10:00,0.633,0.919,0.583,1.136,0.802,0.369,0.651,0.605,�k�k��,6.6,��
2021/05/18,10:10,0.632,0.919,0.584,1.137,0.801,0.368,0.649,0.605,�k�k��,6.0,��
2021/05/18,10:20,0.632,0.920,0.584,1.136,0.804,0.369,0.650,0.604,�k�k��,6.3,��
2021/05/18,10:30,0.633,0.919,0.584,1.135,0.805,0.368,0.649,0.605,�k�k��,5.3,��
2021/05/18,10:40,0.632,0.918,0.584,1.135,0.803,0.369,0.649,0.604,�k�k��,4.8,��
2021/05/18,10:50,0.632,0.919,0.584,1.138,0.803,0.368,0.649,0.606,�k�k��,4.2,��
2021/05/18,11:00,0.633,0.921,0.585,1.133,0.803,0.367,0.651,0.606,�k�k��,4.9,��
2021/05/18,11:10,0.632,0.919,0.585,1.138,0.805,0.369,0.651,0.604,�k�k��,5.3,��
2021/05/18,11:20,0.634,0.920,0.585,1.137,0.804,0.369,0.649,0.604,�k�k��,5.0,��
2021/05/18,11:30,0.634,0.921,0.585,1.137,0.804,0.369,0.650,0.606,�k�k��,4.0,��
2021/05/18,11:40,0.634,0.919,0.586,1.139,0.804,0.368,0.650,0.605,�k�k��,4.3,��
2021/05/18,11:50,0.633,0.924,0.585,1.139,0.803,0.369,0.650,0.605,�k�k��,4.8,��
2021/05/18,12:00,0.634,0.923,0.584,1.139,0.805,0.369,0.650,0.606,�k�k��,6.1,��
2021/05/18,12:10,0.632,0.922,0.585,1.139,0.804,0.368,0.651,0.605,�k�k��,5.8,��
2021/05/18,12:20,0.635,0.924,0.585,1.141,0.805,0.368,0.650,0.606,�k��,4.0,��
2021/05/18,12:30,0.634,0.927,0.586,1.140,0.806,0.369,0.649,0.606,�k��,4.6,��
2021/05/18,12:40,0.634,0.925,0.586,1.138,0.805,0.368,0.649,0.607,���k��,3.4,��
2021/05/18,12:50,0.636,0.924,0.586,1.139,0.805,0.369,0.653,0.606,���k��,3.0,��
2021/05/18,13:00,0.635,0.924,0.589,1.137,0.807,0.369,0.652,0.606,��,3.5,��
2021/05/18,13:10,0.636,0.924,0.585,1.139,0.807,0.369,0.650,0.606,���쓌,3.2,��
2021/05/18,13:20,0.634,0.924,0.586,1.139,0.805,0.370,0.651,0.607,���쓌,3.7,��
2021/05/18,13:30,0.635,0.922,0.587,1.139,0.807,0.369,0.652,0.608,���쓌,3.2,��
2021/05/18,13:40,0.635,0.925,0.588,1.136,0.807,0.369,0.649,0.605,���쓌,3.4,��
2021/05/18,13:50,0.636,0.927,0.587,1.141,0.808,0.370,0.651,0.604,���쓌,2.8,��
2021/05/18,14:00,0.636,0.924,0.586,1.140,0.805,0.368,0.650,0.607,���쓌,3.1,��
2021/05/18,14:10,0.635,0.924,0.587,1.140,0.808,0.368,0.650,0.607,���쓌,2.8,��
2021/05/18,14:20,0.635,0.926,0.586,1.140,0.808,0.370,0.651,0.606,�쓌,2.5,��
2021/05/18,14:30,0.635,0.926,0.588,1.138,0.808,0.370,0.651,0.604,��쓌,2.6,��
2021/05/18,14:40,0.635,0.926,0.586,1.142,0.808,0.369,0.650,0.605,��쓌,2.6,��
2021/05/18,14:50,0.635,0.926,0.586,1.141,0.807,0.369,0.653,0.605,��쓌,2.9,��
2021/05/18,15:00,0.637,0.928,0.587,1.140,0.808,0.370,0.651,0.605,��쓌,2.5,��
2021/05/18,15:10,0.633,0.927,0.588,1.140,0.806,0.369,0.650,0.606,�쓌,3.8,��
2021/05/18,15:20,0.636,0.928,0.588,1.140,0.808,0.371,0.651,0.606,��쓌,3.6,��
2021/05/18,15:30,0.635,0.930,0.586,1.139,0.810,0.370,0.653,0.606,��쓌,2.8,��
2021/05/18,15:40,0.635,0.930,0.588,1.140,0.808,0.369,0.652,0.606,��쓌,3.4,��
2021/05/18,15:50,0.635,0.930,0.589,1.141,0.810,0.369,0.651,0.607,��쓌,3.8,��
2021/05/18,16:00,0.637,0.929,0.586,1.142,0.808,0.370,0.651,0.607,��쓌,4.0,��
2021/05/18,16:10,0.635,0.927,0.588,1.143,0.810,0.371,0.650,0.605,��쓌,3.6,��
2021/05/18,16:20,0.634,0.928,0.588,1.144,0.810,0.368,0.651,0.606,�쓌,4.3,��
2021/05/18,16:30,0.636,0.931,0.588,1.145,0.808,0.369,0.651,0.605,��쓌,4.3,��
2021/05/18,16:40,0.634,0.930,0.587,1.142,0.808,0.368,0.650,0.605,��쓌,3.8,��
2021/05/18,16:50,0.636,0.929,0.588,1.141,0.809,0.368,0.650,0.607,��쓌,4.1,��
2021/05/18,17:00,0.634,0.927,0.589,1.144,0.809,0.369,0.652,0.607,��쓌,4.0,��
2021/05/18,17:10,0.634,0.933,0.589,1.145,0.810,0.369,0.651,0.606,��쓌,3.9,��
2021/05/18,17:20,0.635,0.931,0.591,1.143,0.807,0.369,0.651,0.608,��쓌,3.8,��
2021/05/18,17:30,0.635,0.931,0.589,1.143,0.810,0.368,0.651,0.606,��쓌,3.8,��
2021/05/18,17:40,0.636,0.929,0.591,1.144,0.810,0.369,0.652,0.607,��쓌,3.5,��
2021/05/18,17:50,0.637,0.931,0.589,1.145,0.808,0.369,0.652,0.607,��쓌,3.5,��
2021/05/18,18:00,0.634,0.932,0.589,1.147,0.808,0.369,0.652,0.605,��,2.9,��
2021/05/18,18:10,0.636,0.933,0.591,1.142,0.808,0.369,0.650,0.605,��쓌,3.1,��
2021/05/18,18:20,0.635,0.932,0.590,1.144,0.809,0.369,0.651,0.609,��쓌,3.2,�L
2021/05/18,18:30,0.638,0.932,0.590,1.146,0.809,0.369,0.650,0.609,��쓌,2.9,�L
2021/05/18,18:40,0.637,0.933,0.592,1.145,0.811,0.370,0.652,0.609,��쓌,2.2,�L
2021/05/18,18:50,0.639,0.936,0.592,1.146,0.812,0.371,0.651,0.607,��,2.5,�L
2021/05/18,19:00,0.640,0.937,0.591,1.146,0.812,0.371,0.653,0.608,��쓌,3.4,�L
2021/05/18,19:10,0.639,0.935,0.592,1.148,0.811,0.371,0.653,0.608,��쓌,3.5,�L
2021/05/18,19:20,0.640,0.937,0.592,1.149,0.811,0.372,0.653,0.608,��쓌,3.4,�L
2021/05/18,19:30,0.643,0.937,0.593,1.144,0.811,0.371,0.652,0.608,��쓌,3.9,�L
2021/05/18,19:40,0.647,0.937,0.593,1.147,0.812,0.373,0.650,0.608,��쓌,3.0,�L
2021/05/18,19:50,0.638,0.935,0.592,1.144,0.806,0.375,0.651,0.606,�쓌,3.5,�L
2021/05/18,20:00,0.640,0.928,0.591,1.140,0.801,0.375,0.647,0.605,���쓌,2.5,�L
2021/05/18,20:10,0.637,0.925,0.590,1.139,0.799,0.374,0.647,0.603,��쓌,1.2,�L
2021/05/18,20:20,0.635,0.924,0.590,1.137,0.801,0.374,0.648,0.603,�쓌,2.0,�L
2021/05/18,20:30,0.635,0.924,0.591,1.136,0.798,0.374,0.648,0.604,�쓌,1.9,�L
2021/05/18,20:40,0.636,0.924,0.588,1.134,0.796,0.375,0.647,0.605,��쓌,2.3,�L
2021/05/18,20:50,0.635,0.923,0.588,1.134,0.796,0.373,0.647,0.603,�쓌,2.5,�L
2021/05/18,21:00,0.636,0.922,0.588,1.132,0.795,0.373,0.645,0.603,�쓌,2.0,�L
2021/05/18,21:10,0.633,0.916,0.587,1.123,0.788,0.374,0.643,0.602,���쓌,2.5,�L
2021/05/18,21:20,0.628,0.911,0.588,1.115,0.789,0.374,0.642,0.600,���k��,3.3,�L
2021/05/18,21:30,0.629,0.910,0.587,1.117,0.792,0.375,0.642,0.601,���k��,2.3,�L
2021/05/18,21:40,0.631,0.908,0.588,1.118,0.792,0.374,0.642,0.601,���k��,2.9,�L
2021/05/18,21:50,0.632,0.911,0.586,1.116,0.790,0.374,0.641,0.601,���k��,1.9,�L
2021/05/18,22:00,0.630,0.911,0.587,1.115,0.789,0.373,0.641,0.600,���k��,2.0,�L
2021/05/18,22:10,0.629,0.911,0.585,1.115,0.789,0.372,0.642,0.601,���k��,1.9,�L
2021/05/18,22:20,0.630,0.911,0.584,1.116,0.789,0.374,0.641,0.601,��,1.2,�L
2021/05/18,22:30,0.631,0.911,0.581,1.113,0.788,0.373,0.641,0.601,�k��,0.6,�L
2021/05/18,22:40,0.630,0.911,0.582,1.115,0.788,0.371,0.641,0.602,�k�k��,0.8,�L
2021/05/18,22:50,0.628,0.908,0.580,1.115,0.789,0.372,0.640,0.602,�k�k��,0.9,�L
2021/05/18,23:00,0.626,0.907,0.582,1.114,0.786,0.370,0.641,0.600,�k��,1.5,�L
2021/05/18,23:10,0.626,0.906,0.579,1.113,0.787,0.369,0.640,0.599,�k�k��,1.5,��
2021/05/18,23:20,0.625,0.906,0.579,1.111,0.786,0.371,0.639,0.599,�k�k��,1.5,��
2021/05/18,23:30,0.622,0.905,0.575,1.110,0.787,0.367,0.639,0.601,�k,1.5,��
2021/05/18,23:40,0.623,0.905,0.578,1.112,0.786,0.368,0.639,0.602,�k,1.7,��
2021/05/18,23:50,0.622,0.905,0.576,1.111,0.785,0.367,0.641,0.601,�k�k��,2.3,��
